Location: Julian California
(33.0790°N, 116.6010°W)
Time: 05:43:01
(UTC-07:00)

Cosmos 1743 - Pass Details

Date: 19 May 2017
Orbit: 512 x 530 km, 82.6° (Epoch: 22 July)

Event Time Altitude Azimuth Distance (km) Brightness Sun altitude
Rises 21:51:10 0° 351° (N) 2,657 7.2 -22.9°
Reaches altitude 10° 21:53:19 10° 350° (N) 1,767 6.1 -23.2°
Enters shadow 21:56:57 72° 304° (NW) 555 2.8 -23.8°
